Location: Cambridge (historical)
(38.6883°N, 119.0140°W)
Time: 01:20:08
(UTC+00:00)

VELOX 1 - Pass Details

Date: 27 September 2021
Orbit: 626 x 642 km, 98.3° (Epoch: 17 October)

Event Time Altitude Azimuth Distance (km) Brightness Sun altitude
Exits shadow 11:35:12 26° 350° (N) 1,254 ? -26.4°
Drops below altitude 10° 11:37:07 10° 349° (NNW) 2,013 ? -26.0°
Sets 11:39:19 0° 348° (NNW) 2,923 ? -25.6°
